Overview Statistics Trail Chart Weather Telemetry Raw packets
 

This is the latest recevied weather packets stored in our database for station/object N5JXS. If no packets are shown the sender has not sent any weather packets the latest 10 day(s).

<< 26 27 28 29 30 31 32 >>
Time Temp. Humidity Pressure Rain* Wind** Luminosity Snow
1788445067 17.22° C 48% 1025.2 hPa 0 mm - 117 W/m² -
1788444762 16.67° C 47% 1025.2 hPa 0 mm - 19 W/m² -
1788444457 16.67° C 47% 1025.3 hPa 0 mm - 18 W/m² -
1788444152 16.11° C 48% 1025.3 hPa 0 mm - 18 W/m² -
1788443848 16.11° C 49% 1025 hPa 0 mm - 17 W/m² -
1788443543 16.11° C 49% 1025.2 hPa 0 mm - 17 W/m² -
1788443241 15.56° C 49% 1025.3 hPa 0 mm - 18 W/m² -
1788442938 15.56° C 49% 1025.1 hPa 0 mm - 16 W/m² -
1788442636 16.11° C 47% 1025 hPa 0 mm - 15 W/m² -
1788442332 15.56° C 48% 1025 hPa 0 mm - 15 W/m² -
1788442032 15° C 48% 1024.7 hPa 0 mm - 13 W/m² -
1788441726 15° C 48% 1024.8 hPa 0 mm - 13 W/m² -
1788441421 15° C 49% 1024.6 hPa 0 mm - 11 W/m² -
1788441121 15° C 49% 1025 hPa 0 mm - 11 W/m² -
1788440816 15° C 48% 1024.5 hPa 0 mm - 11 W/m² -
1788440510 15° C 47% 1024.6 hPa 0 mm - 9 W/m² -
1788440208 15.56° C 46% 1024.4 hPa 0 mm - 7 W/m² -
1788439904 15.56° C 45% 1024.4 hPa 0 mm - 6 W/m² -
1788439603 15.56° C 44% 1024.5 hPa 0 mm - 5 W/m² -
1788439297 15.56° C 45% 1024.1 hPa 0 mm - 3 W/m² -
1788438992 15.56° C 43% 1024.2 hPa 0 mm - 2 W/m² -
1788438691 15° C 43% 1024.1 hPa 0 mm - 0 W/m² -
1788438391 15.56° C 44% 1024.2 hPa 0 mm - 0 W/m² -
1788438091 15.56° C 43% 1024.1 hPa 0 mm - 0 W/m² -
1788437790 16.11° C 42% 1023.9 hPa 0 mm - 0 W/m² -

* Rain latest hour (hover to see other rain measurements)
** Current wind speed in m/s (hover to see current wind gust speed)